639  
ASUS44 KMAF 081910  
RWRMAF  
MIDLAND AREA WEATHER ROUNDUP  
NATIONAL WEATHER SERVICE MIDLAND TX  
100 PM CST THU DEC 08 2022  
   
..IN SOUTHWEST TEXAS AND SOUTHEAST NEW MEXICO
 
 
 
CITY SKY/WX TMP DP RH WIND PRES REMARKS
 
ALPINE SUNNY 69 44 40 CALM 30.28F  
ANDREWS NOT AVBL  
ARTESIA SUNNY 55 52 88 NE10 30.20F  
BIG SPRING CLOUDY 66 60 80 S9 30.17F  
CARLSBAD SUNNY 68 43 40 W15G24 30.16F  
DRYDEN N/A 68 60 75 CALM 30.19F  
FORT STOCKTON SUNNY 70 51 51 NW5 30.18F  
GUAD PASS N/A N/A N/A N/A MISG N/A  
HOBBS SUNNY 66 43 42 SW17 30.19F  
LAMESA NOT AVBL  
MARFA SUNNY 67 46 47 S7 30.27F  
MIDLAND AIRPK SUNNY 67 58 74 SW7 30.18F  
MIDLAND INTL MOSUNNY 66 61 84 SW9 30.17F  
ODESSA SUNNY 69 58 67 SW8 30.18F  
PECOS SUNNY 67 55 65 CALM 30.18F  
PRESIDIO FAIR 70 57 63 CALM 30.19F  
SEMINOLE SUNNY 68 45 43 W13 30.23F  
SNYDER PTSUNNY 67 60 77 SW10 30.16F  
WINK NOT AVBL  

   
..OTHER STATIONS IN TEXAS
 
 
 
CITY SKY/WX TMP DP RH WIND PRES REMARKS
 
ABILENE MOSUNNY 74 61 63 SW7 30.13F  
AMARILLO SUNNY 64 28 25 W25G38 30.12F  
AUSTIN PTSUNNY 79 67 66 S10G24 30.13F  
BROWNSVILLE PTSUNNY 83 69 62 S16G25 30.11F  
CORPUS CHRISTI PTSUNNY 81 70 69 S16 30.13F  
DALLAS FTW PTSUNNY 73 63 70 VRB3 30.10F  
DEL RIO PTSUNNY 76 67 73 S9 30.11F  
EL PASO MOSUNNY 66 40 38 VRB3 30.22F  
HOUSTON INT MOSUNNY 81 65 58 SW6 30.16F  
LUBBOCK MOSUNNY 65 43 44 NW15 30.16F  
SAN ANGELO MOSUNNY 75 61 61 SW13 30.13F  
SAN ANTONIO PTSUNNY 77 64 64 S12 30.14F  
WACO CLOUDY 77 67 71 SW10G22 30.11F  
WICHITA FALLS CLOUDY 50 48 93 SE8 30.06F FOG  

   
..OTHER LOCATIONS IN NEW MEXICO
 
 
 
CITY SKY/WX TMP DP RH WIND PRES REMARKS
 
ALAMOGORDO SUNNY 61 32 33 VRB6 30.25F  
ALBUQUERQUE MOSUNNY 46 24 42 VRB5 30.31F  
CANNON AFB SUNNY 57 33 39 W23 30.17F  
CLOVIS SUNNY 59 33 37 W22G29 30.19F  
HOLLOMAN AFB SUNNY 62 35 37 S6 30.26F  
ROSWELL N/A 58 45 62 E6 30.19F  
RUIDOSO N/A 50 28 43 NE12 30.27F  
SANTA FE SUNNY 42 23 46 N10G17 30.28F WCI 36  
TRUTH OR CONSE SUNNY 55 36 48 MISG 30.25F  
TUCUMCARI SUNNY 58 17 20 W25G41 30.12F  

 
 
 
CLICK HERE TO GO TO PREVIOUS BULLETINS.

The Nexlab TX Page
The Nexlab NM Page Main Text Page